Regional Weather Roundup
Issued by NWS Memphis, TN

Home | Current Version | Previous Version | Text Only | Print | Product List | Glossary On
Versions: 1 2 3 4 5 6 7 8 9 10 11 12 13 14 15 16 17 18 19 20 21 22 23 24 25 26 27 28 29 30 31 32 33 34 35 36 37 38 39 40 41 42 43 44 45 46 47 48 49 50
000
ASUS44 KMEG 281610
RWRMEG
MEMPHIS CWA HOURLY WEATHER ROUNDUP
NATIONAL WEATHER SERVICE MEMPHIS TN
1100 AM CDT FRI APR 28 2017

...WEST TENNESSEE...

CITY           SKY/WX    TMP DP  RH WIND       PRES   REMARKS
MEMPHIS INTL   CLOUDY    71  66  84 S13       29.80F
NWS MEMPHIS      N/A     71 N/A N/A MISG        N/A
JACKSON        PTSUNNY   73  65  75 S9G20     29.85F
SOMERVILLE     CLOUDY    72  64  78 S6        29.83S
BOLIVAR        CLOUDY    72  66  83 S12G17    29.85S
LEXINGTON      CLOUDY    70  64  83 S8G15     29.89R
SAVANNAH       CLOUDY    73  68  83 S9G17     29.88S
DYERSBURG      PTSUNNY   72  62  71 S10       29.83S
UNION CITY     SUNNY     73  63  68 S12       29.83F
PARIS          MOSUNNY   72  61  68 S10       29.86F
HUNTINGDON     MOSUNNY   75  64  69 S17       29.86S


...EASTERN ARKANSAS...

CITY           SKY/WX    TMP DP  RH WIND       PRES   REMARKS
JONESBORO      CLOUDY    66  60  81 E6        29.78S
WEST MEMPHIS   CLOUDY    70  66  87 S13       29.78F
BATESVILLE     CLOUDY    63  57  82 E9        29.77S
NEWPORT        CLOUDY    64  60  87 MISG        N/A
WALNUT RIDGE   CLOUDY    64  57  77 CALM      29.78S
BLYTHEVILLE    PTSUNNY   70  63  78 S9        29.81S
SEARCY         CLOUDY    64  61  90 SE5       29.78R
STUTTGART      CLOUDY    72  57  60 S20G25    29.75F
PINE BLUFF     PTSUNNY   70  66  87 S12       29.75F
MONTICELLO     CLOUDY    73  68  84 SE5       29.77R


...NORTH MISSISSIPPI...

CITY           SKY/WX    TMP DP  RH WIND       PRES   REMARKS
TUPELO         CLOUDY    74  68  81 SE16G23   29.87F
OXFORD         PTSUNNY   72  66  83 S10G17    29.86S
BATESVILLE     PTSUNNY   72  66  83 S6        29.83S
OLIVE BRANCH   LGT RAIN N/A N/A N/A S12       29.82R FOG
TUNICA         PTSUNNY   70  64  83 S13       29.81R
CLARKSDALE     CLOUDY    73  73 100 S9        29.81R
CORINTH        CLOUDY    70  66  88 S8        29.88S
GREENWOOD      MOSUNNY   81  72  74 S24G32    29.80S
COLUMBUS       CLOUDY    78  73  83 S12G18    29.89S
STARKVILLE     MOSUNNY   77  72  83 S12       29.89F
GOLDEN TRIANGL CLOUDY    77  66  69 S14G25    29.87R FOG


...SOUTHEAST MISSOURI...

CITY           SKY/WX    TMP DP  RH WIND       PRES   REMARKS
KENNETT        PTSUNNY   68  63  83 SE6       29.79F
MALDEN         PTSUNNY   72  61  68 SE12      29.81F
WEST PLAINS    CLOUDY    62  55  77 E9        29.75F
POPLAR BLUFF   CLOUDY    64  58  80 E10       29.80F
CAPE GIRARDEAU CLOUDY    61  54  77 E9        29.85F


...NORTHWEST ALABAMA...

CITY           SKY/WX    TMP DP  RH WIND       PRES   REMARKS
MUSCLE SHOALS  CLOUDY    75  67  76 S13G22    29.93S


...MIDDLE TENNESSEE...

CITY           SKY/WX    TMP DP  RH WIND       PRES   REMARKS
NASHVILLE      MOSUNNY   76  64  66 S13G21    29.94S
CLARKSVILLE    MOSUNNY   70  58  65 S8G17     29.90S
COLUMBIA       CLOUDY    73  73 100 S13       29.92S


...WESTERN KENTUCKY...

CITY           SKY/WX    TMP DP  RH WIND       PRES   REMARKS
PADUCAH        CLOUDY    67  56  67 E6        29.86R
FORT CAMPBELL  MOSUNNY   72  60  65 SE12      29.89S


...CENTRAL ARKANSAS...

CITY           SKY/WX    TMP DP  RH WIND       PRES   REMARKS
LITTLE ROCK    CLOUDY    67  65  93 S12       29.74S


SKY/WX REPORTED AS FAIR MEANS FEW OR NO CLOUDS BELOW
12 THOUSAND FEET.





USA.gov is the U.S. government's official web portal to all federal, state and local government web resources and services.